Location: Powder Track
(41.8531°N, 72.3584°W)
Time: 07:39:30
(UTC+00:00)

Altair - Pass Details

Date: 30 July 2021
Orbit: 1501 x 1682 km, 47.2° (Epoch: 19 September)

Event Time Altitude Azimuth Distance (km) Brightness Sun altitude
Exits shadow 06:44:34 41° 210° (SSW) 2,096 7.7 -24.7°
Maximum altitude 06:48:06 66° 145° (SE) 1,640 7.4 -24.4°
Drops below altitude 10° 06:57:11 10° 66° (ENE) 3,661 10.2 -23.5°
Sets 07:00:12 0° 64° (ENE) 4,639 11.0 -23.2°
